Time,TemperatureF,DewpointF,PressureIn,WindDirection,WindDirectionDegrees,WindSpeedMPH,WindSpeedGustMPH,Humidity,HourlyPrecipIn,Conditions,Clouds,dailyrainin,SoftwareType,DateUTC
2013-02-13 00:00:00,27.8,11.1,30.27,NNW,347,1.0,3.0,49,0.00,,---,0.00,VWS V14.01,2013-02-13 07:00:00,
2013-02-13 00:05:00,27.8,11.6,30.27,NNW,342,2.0,3.0,50,0.00,,---,0.00,VWS V14.01,2013-02-13 07:05:00,
2013-02-13 00:10:00,28.0,11.3,30.28,NNE,15,1.0,1.0,49,0.00,,---,0.00,VWS V14.01,2013-02-13 07:10:00,
2013-02-13 00:15:00,27.9,11.2,30.28,NNE,15,0.0,0.0,49,0.00,,---,0.00,VWS V14.01,2013-02-13 07:15:00,
2013-02-13 00:20:00,27.6,11.4,30.28,NNE,15,0.0,0.0,50,0.00,,---,0.00,VWS V14.01,2013-02-13 07:20:00,
2013-02-13 00:25:00,27.5,11.3,30.28,North,360,0.0,0.0,50,0.00,,---,0.00,VWS V14.01,2013-02-13 07:25:00,
2013-02-13 00:30:00,27.3,11.1,30.28,North,360,0.0,0.0,50,0.00,,---,0.00,VWS V14.01,2013-02-13 07:30:00,
2013-02-13 00:35:00,26.9,11.2,30.28,North,360,0.0,0.0,51,0.00,,---,0.00,VWS V14.01,2013-02-13 07:35:00,
2013-02-13 00:40:00,26.7,11.4,30.28,North,360,0.0,0.0,52,0.00,,---,0.00,VWS V14.01,2013-02-13 07:40:00,
2013-02-13 00:45:00,26.8,11.6,30.28,North,350,2.0,2.0,52,0.00,,---,0.00,VWS V14.01,2013-02-13 07:45:00,
2013-02-13 00:50:00,27.3,11.6,30.27,NNW,337,1.0,2.0,51,0.00,,---,0.00,VWS V14.01,2013-02-13 07:50:00,
2013-02-13 00:55:00,27.7,11.9,30.28,North,5,0.0,2.0,51,0.00,,---,0.00,VWS V14.01,2013-02-13 07:55:00,
2013-02-13 01:00:00,28.0,11.8,30.28,North,350,2.0,5.0,50,0.00,,---,0.00,VWS V14.01,2013-02-13 08:00:00,
2013-02-13 01:05:00,28.0,11.8,30.28,NW,304,3.0,4.0,50,0.00,,---,0.00,VWS V14.01,2013-02-13 08:05:00,
2013-02-13 01:10:00,28.2,12.0,30.28,NNW,348,1.0,1.0,50,0.00,,---,0.00,VWS V14.01,2013-02-13 08:10:00,
2013-02-13 01:15:00,28.1,11.9,30.28,North,5,2.0,2.0,50,0.00,,---,0.00,VWS V14.01,2013-02-13 08:15:00,
2013-02-13 01:20:00,28.0,11.8,30.28,NNW,346,5.0,5.0,50,0.00,,---,0.00,VWS V14.01,2013-02-13 08:20:00,
2013-02-13 01:25:00,28.1,11.9,30.28,NNE,12,3.0,4.0,50,0.00,,---,0.00,VWS V14.01,2013-02-13 08:25:00,
2013-02-13 01:30:00,28.2,12.0,30.28,NNW,344,1.0,1.0,50,0.00,,---,0.00,VWS V14.01,2013-02-13 08:30:00,
2013-02-13 01:35:00,28.0,11.8,30.28,NNW,346,2.0,2.0,50,0.00,,---,0.00,VWS V14.01,2013-02-13 08:35:00,
2013-02-13 01:40:00,27.8,11.6,30.28,NNW,345,0.0,0.0,50,0.00,,---,0.00,VWS V14.01,2013-02-13 08:40:00,
2013-02-13 01:45:00,27.7,11.5,30.28,NNW,347,1.0,1.0,50,0.00,,---,0.00,VWS V14.01,2013-02-13 08:45:00,
2013-02-13 01:50:00,27.6,11.9,30.28,NW,321,1.0,1.0,51,0.00,,---,0.00,VWS V14.01,2013-02-13 08:50:00,
2013-02-13 01:55:00,27.6,11.9,30.28,NNW,341,1.0,2.0,51,0.00,,---,0.00,VWS V14.01,2013-02-13 08:55:00,
2013-02-13 02:00:00,27.4,11.7,30.28,North,5,0.0,1.0,51,0.00,,---,0.00,VWS V14.01,2013-02-13 09:00:00,
2013-02-13 02:05:00,27.5,11.8,30.28,North,5,0.0,2.0,51,0.00,,---,0.00,VWS V14.01,2013-02-13 09:05:00,
2013-02-13 02:10:00,27.5,11.8,30.28,North,5,1.0,2.0,51,0.00,,---,0.00,VWS V14.01,2013-02-13 09:10:00,
2013-02-13 02:15:00,27.7,11.9,30.28,NNW,337,3.0,8.0,51,0.00,,---,0.00,VWS V14.01,2013-02-13 09:15:00,
2013-02-13 02:20:00,27.7,11.5,30.28,NW,323,5.0,5.0,50,0.00,,---,0.00,VWS V14.01,2013-02-13 09:20:00,
2013-02-13 02:25:00,27.7,11.5,30.28,North,355,3.0,6.0,50,0.00,,---,0.00,VWS V14.01,2013-02-13 09:25:00,
2013-02-13 02:30:00,27.6,11.9,30.28,North,351,1.0,5.0,51,0.00,,---,0.00,VWS V14.01,2013-02-13 09:30:00,
2013-02-13 02:35:00,27.4,11.7,30.28,NNW,336,1.0,3.0,51,0.00,,---,0.00,VWS V14.01,2013-02-13 09:35:00,
2013-02-13 02:40:00,27.2,11.5,30.28,NW,319,2.0,2.0,51,0.00,,---,0.00,VWS V14.01,2013-02-13 09:40:00,
2013-02-13 02:45:00,27.2,11.5,30.28,NNW,341,0.0,1.0,51,0.00,,---,0.00,VWS V14.01,2013-02-13 09:45:00,
2013-02-13 02:50:00,27.3,11.6,30.28,NW,304,0.0,1.0,51,0.00,,---,0.00,VWS V14.01,2013-02-13 09:50:00,
2013-02-13 02:55:00,27.0,11.7,30.28,NW,307,0.0,1.0,52,0.00,,---,0.00,VWS V14.01,2013-02-13 09:55:00,
2013-02-13 03:00:00,26.7,11.4,30.28,NNE,12,1.0,2.0,52,0.00,,---,0.00,VWS V14.01,2013-02-13 10:00:00,
2013-02-13 03:05:00,26.6,11.8,30.28,North,5,0.0,0.0,53,0.00,,---,0.00,VWS V14.01,2013-02-13 10:05:00,
2013-02-13 03:10:00,26.6,11.4,30.28,North,5,0.0,0.0,52,0.00,,---,0.00,VWS V14.01,2013-02-13 10:10:00,
2013-02-13 03:15:00,26.4,11.6,30.28,North,5,0.0,2.0,53,0.00,,---,0.00,VWS V14.01,2013-02-13 10:15:00,
2013-02-13 03:20:00,26.2,11.4,30.28,NW,317,1.0,2.0,53,0.00,,---,0.00,VWS V14.01,2013-02-13 10:20:00,
2013-02-13 03:25:00,26.6,11.8,30.28,NW,323,1.0,2.0,53,0.00,,---,0.00,VWS V14.01,2013-02-13 10:25:00,
2013-02-13 03:30:00,26.8,11.6,30.28,NNW,343,1.0,2.0,52,0.00,,---,0.00,VWS V14.01,2013-02-13 10:30:00,
2013-02-13 03:35:00,27.0,11.3,30.28,NNW,344,0.0,2.0,51,0.00,,---,0.00,VWS V14.01,2013-02-13 10:35:00,
2013-02-13 03:40:00,26.8,11.1,30.28,NNW,344,1.0,6.0,51,0.00,,---,0.00,VWS V14.01,2013-02-13 10:40:00,
2013-02-13 03:45:00,26.7,11.0,30.28,North,5,1.0,1.0,51,0.00,,---,0.00,VWS V14.01,2013-02-13 10:45:00,
2013-02-13 03:50:00,26.4,11.2,30.28,North,5,0.0,0.0,52,0.00,,---,0.00,VWS V14.01,2013-02-13 10:50:00,
2013-02-13 03:55:00,26.1,10.9,30.28,North,5,0.0,0.0,52,0.00,,---,0.00,VWS V14.01,2013-02-13 10:55:00,
2013-02-13 04:00:00,25.9,11.1,30.28,North,5,0.0,0.0,53,0.00,,---,0.00,VWS V14.01,2013-02-13 11:00:00,
2013-02-13 04:05:00,25.6,10.9,30.27,North,5,1.0,1.0,53,0.00,,---,0.00,VWS V14.01,2013-02-13 11:05:00,
2013-02-13 04:10:00,25.2,10.9,30.27,North,5,0.0,0.0,54,0.00,,---,0.00,VWS V14.01,2013-02-13 11:10:00,
2013-02-13 04:15:00,25.0,11.1,30.27,NNW,330,0.0,2.0,55,0.00,,---,0.00,VWS V14.01,2013-02-13 11:15:00,
2013-02-13 04:20:00,25.1,11.2,30.27,NNW,330,1.0,1.0,55,0.00,,---,0.00,VWS V14.01,2013-02-13 11:20:00,
2013-02-13 04:24:00,25.0,11.1,30.27,NNW,331,1.0,1.0,55,0.00,,---,0.00,VWS V14.01,2013-02-13 11:24:00,
2013-02-13 04:25:00,25.0,11.1,30.27,NNW,331,0.0,2.0,55,0.00,,---,0.00,VWS V14.01,2013-02-13 11:25:00,
2013-02-13 04:29:00,25.1,11.2,30.27,NNW,347,0.0,0.0,55,0.00,,---,0.00,VWS V14.01,2013-02-13 11:29:00,
2013-02-13 04:30:00,25.1,11.2,30.27,NNW,347,0.0,3.0,55,0.00,,---,0.00,VWS V14.01,2013-02-13 11:30:00,
2013-02-13 04:34:00,25.3,11.0,30.27,NNW,344,0.0,0.0,54,0.00,,---,0.00,VWS V14.01,2013-02-13 11:34:00,
2013-02-13 04:35:00,25.3,11.0,30.27,NNW,344,0.0,4.0,54,0.00,,---,0.00,VWS V14.01,2013-02-13 11:35:00,
2013-02-13 04:39:00,25.2,10.9,30.27,North,5,0.0,0.0,54,0.00,,---,0.00,VWS V14.01,2013-02-13 11:39:00,
2013-02-13 04:40:00,25.3,11.0,30.27,North,5,0.0,2.0,54,0.00,,---,0.00,VWS V14.01,2013-02-13 11:40:00,
2013-02-13 04:44:00,25.2,10.9,30.27,NNW,335,2.0,2.0,54,0.00,,---,0.00,VWS V14.01,2013-02-13 11:44:00,
2013-02-13 04:45:00,25.2,10.9,30.27,NNW,335,0.0,2.0,54,0.00,,---,0.00,VWS V14.01,2013-02-13 11:45:00,
2013-02-13 04:49:00,25.2,10.9,30.27,NNW,336,0.0,0.0,54,0.00,,---,0.00,VWS V14.01,2013-02-13 11:49:00,
2013-02-13 04:50:00,25.2,10.9,30.27,NNW,336,0.0,2.0,54,0.00,,---,0.00,VWS V14.01,2013-02-13 11:50:00,
2013-02-13 04:54:00,25.1,10.8,30.27,NNW,344,1.0,1.0,54,0.00,,---,0.00,VWS V14.01,2013-02-13 11:54:00,
2013-02-13 04:55:00,25.1,10.8,30.27,NNW,336,1.0,1.0,54,0.00,,---,0.00,VWS V14.01,2013-02-13 11:55:00,
2013-02-13 04:59:00,25.1,10.8,30.27,NNW,344,0.0,0.0,54,0.00,,---,0.00,VWS V14.01,2013-02-13 11:59:00,
2013-02-13 05:00:00,25.2,10.9,30.27,NNW,344,0.0,1.0,54,0.00,,---,0.00,VWS V14.01,2013-02-13 12:00:00,
2013-02-13 05:04:00,24.9,10.6,30.27,NNW,344,1.0,2.0,54,0.00,,---,0.00,VWS V14.01,2013-02-13 12:04:00,
2013-02-13 05:05:00,24.9,10.6,30.27,NNW,344,2.0,2.0,54,0.00,,---,0.00,VWS V14.01,2013-02-13 12:05:00,
2013-02-13 05:09:00,25.1,10.8,30.27,NNW,345,0.0,1.0,54,0.00,,---,0.00,VWS V14.01,2013-02-13 12:09:00,
2013-02-13 05:10:00,25.1,10.8,30.27,NNW,345,1.0,4.0,54,0.00,,---,0.00,VWS V14.01,2013-02-13 12:10:00,
2013-02-13 05:14:00,24.9,10.2,30.27,NNW,345,0.0,0.0,53,0.00,,---,0.00,VWS V14.01,2013-02-13 12:14:00,
2013-02-13 05:15:00,25.0,10.7,30.27,NNW,345,0.0,1.0,54,0.00,,---,0.00,VWS V14.01,2013-02-13 12:15:00,
2013-02-13 05:19:00,24.4,10.1,30.27,NNW,345,0.0,0.0,54,0.00,,---,0.00,VWS V14.01,2013-02-13 12:19:00,
2013-02-13 05:20:00,24.4,10.1,30.27,NNW,345,0.0,0.0,54,0.00,,---,0.00,VWS V14.01,2013-02-13 12:20:00,
2013-02-13 05:24:00,24.2,10.4,30.27,NNW,345,0.0,0.0,55,0.00,,---,0.00,VWS V14.01,2013-02-13 12:24:00,
2013-02-13 05:25:00,24.2,10.4,30.27,NNW,345,0.0,0.0,55,0.00,,---,0.00,VWS V14.01,2013-02-13 12:25:00,
2013-02-13 05:29:00,23.8,10.4,30.27,NNW,345,0.0,0.0,56,0.00,,---,0.00,VWS V14.01,2013-02-13 12:29:00,
2013-02-13 05:30:00,23.8,10.4,30.27,NNW,345,0.0,0.0,56,0.00,,---,0.00,VWS V14.01,2013-02-13 12:30:00,
2013-02-13 05:34:00,23.4,10.4,30.27,NNW,345,0.0,0.0,57,0.00,,---,0.00,VWS V14.01,2013-02-13 12:34:00,
2013-02-13 05:35:00,23.5,10.1,30.27,NNW,345,0.0,0.0,56,0.00,,---,0.00,VWS V14.01,2013-02-13 12:35:00,
2013-02-13 05:39:00,23.1,10.5,30.27,NNW,345,0.0,0.0,58,0.00,,---,0.00,VWS V14.01,2013-02-13 12:39:00,
2013-02-13 05:40:00,23.1,10.1,30.27,NNW,345,0.0,0.0,57,0.00,,---,0.00,VWS V14.01,2013-02-13 12:40:00,
2013-02-13 05:44:00,22.9,10.3,30.28,NNW,345,0.0,0.0,58,0.00,,---,0.00,VWS V14.01,2013-02-13 12:44:00,
2013-02-13 05:45:00,23.0,10.4,30.27,NNW,345,0.0,0.0,58,0.00,,---,0.00,VWS V14.01,2013-02-13 12:45:00,
2013-02-13 05:49:00,22.9,10.3,30.27,NNW,345,0.0,0.0,58,0.00,,---,0.00,VWS V14.01,2013-02-13 12:49:00,
2013-02-13 05:50:00,22.9,10.4,30.27,NNW,345,0.0,0.0,58,0.00,,---,0.00,VWS V14.01,2013-02-13 12:50:00,
2013-02-13 05:54:00,22.6,10.4,30.27,NNW,345,0.0,0.0,59,0.00,,---,0.00,VWS V14.01,2013-02-13 12:54:00,
2013-02-13 05:55:00,22.7,10.5,30.27,NNW,345,0.0,0.0,59,0.00,,---,0.00,VWS V14.01,2013-02-13 12:55:00,
2013-02-13 05:59:00,22.5,10.7,30.28,NNW,345,0.0,0.0,60,0.00,,---,0.00,VWS V14.01,2013-02-13 12:59:00,
2013-02-13 06:00:00,22.5,10.7,30.28,NNW,345,0.0,0.0,60,0.00,,---,0.00,VWS V14.01,2013-02-13 13:00:00,
2013-02-13 06:04:00,22.4,10.6,30.28,East,87,0.0,0.0,60,0.00,,---,0.00,VWS V14.01,2013-02-13 13:04:00,
2013-02-13 06:05:00,22.4,10.6,30.28,East,87,0.0,2.0,60,0.00,,---,0.00,VWS V14.01,2013-02-13 13:05:00,
2013-02-13 06:09:00,22.4,10.6,30.28,East,87,0.0,0.0,60,0.00,,---,0.00,VWS V14.01,2013-02-13 13:09:00,
2013-02-13 06:10:00,22.4,10.6,30.28,East,87,0.0,0.0,60,0.00,,---,0.00,VWS V14.01,2013-02-13 13:10:00,
2013-02-13 06:14:00,22.3,10.5,30.28,East,87,0.0,0.0,60,0.00,,---,0.00,VWS V14.01,2013-02-13 13:14:00,
2013-02-13 06:15:00,22.3,10.5,30.28,East,87,0.0,0.0,60,0.00,,---,0.00,VWS V14.01,2013-02-13 13:15:00,
2013-02-13 06:19:00,22.1,10.7,30.28,East,88,0.0,1.0,61,0.00,,---,0.00,VWS V14.01,2013-02-13 13:19:00,
2013-02-13 06:20:00,22.1,10.4,30.28,East,88,1.0,1.0,60,0.00,,---,0.00,VWS V14.01,2013-02-13 13:20:00,
2013-02-13 06:24:00,21.8,10.8,30.28,East,88,0.0,0.0,62,0.00,,---,0.00,VWS V14.01,2013-02-13 13:24:00,
2013-02-13 06:25:00,21.8,10.8,30.28,East,88,0.0,1.0,62,0.00,,---,0.00,VWS V14.01,2013-02-13 13:25:00,
2013-02-13 06:29:00,21.7,10.7,30.28,East,88,0.0,0.0,62,0.00,,---,0.00,VWS V14.01,2013-02-13 13:29:00,
2013-02-13 06:30:00,21.7,10.7,30.28,East,88,0.0,0.0,62,0.00,,---,0.00,VWS V14.01,2013-02-13 13:30:00,
2013-02-13 06:34:00,21.4,10.4,30.28,East,88,0.0,0.0,62,0.00,,---,0.00,VWS V14.01,2013-02-13 13:34:00,
2013-02-13 06:35:00,21.4,10.4,30.28,East,88,0.0,0.0,62,0.00,,---,0.00,VWS V14.01,2013-02-13 13:35:00,
2013-02-13 06:39:00,21.1,10.5,30.29,East,88,0.0,0.0,63,0.00,,---,0.00,VWS V14.01,2013-02-13 13:39:00,
2013-02-13 06:40:00,21.1,10.5,30.29,East,88,0.0,0.0,63,0.00,,---,0.00,VWS V14.01,2013-02-13 13:40:00,
2013-02-13 06:44:00,21.1,10.5,30.29,East,88,0.0,0.0,63,0.00,,---,0.00,VWS V14.01,2013-02-13 13:44:00,
2013-02-13 06:45:00,21.1,10.5,30.29,East,88,0.0,0.0,63,0.00,,---,0.00,VWS V14.01,2013-02-13 13:45:00,
2013-02-13 06:49:00,21.1,10.1,30.28,East,88,0.0,0.0,62,0.00,,---,0.00,VWS V14.01,2013-02-13 13:49:00,
2013-02-13 06:50:00,21.2,10.6,30.29,East,88,0.0,0.0,63,0.00,,---,0.00,VWS V14.01,2013-02-13 13:50:00,
2013-02-13 06:54:00,21.0,10.4,30.29,East,88,0.0,0.0,63,0.00,,---,0.00,VWS V14.01,2013-02-13 13:54:00,
2013-02-13 06:55:00,21.0,10.0,30.29,East,88,0.0,0.0,62,0.00,,---,0.00,VWS V14.01,2013-02-13 13:55:00,
2013-02-13 06:59:00,20.8,10.2,30.29,East,88,0.0,0.0,63,0.00,,---,0.00,VWS V14.01,2013-02-13 13:59:00,
2013-02-13 07:00:00,20.8,9.9,30.29,East,88,0.0,0.0,62,0.00,,---,0.00,VWS V14.01,2013-02-13 14:00:00,
2013-02-13 07:04:00,20.9,10.3,30.28,East,88,0.0,0.0,63,0.00,,---,0.00,VWS V14.01,2013-02-13 14:04:00,
2013-02-13 07:05:00,20.9,10.3,30.28,East,88,0.0,0.0,63,0.00,,---,0.00,VWS V14.01,2013-02-13 14:05:00,
2013-02-13 07:09:00,20.8,10.6,30.28,East,88,0.0,0.0,64,0.00,,---,0.00,VWS V14.01,2013-02-13 14:09:00,
2013-02-13 07:10:00,20.7,10.5,30.28,East,88,0.0,0.0,64,0.00,,---,0.00,VWS V14.01,2013-02-13 14:10:00,
2013-02-13 07:14:00,20.9,10.3,30.28,East,88,0.0,0.0,63,0.00,,---,0.00,VWS V14.01,2013-02-13 14:14:00,
2013-02-13 07:15:00,20.8,10.2,30.28,East,88,0.0,0.0,63,0.00,,---,0.00,VWS V14.01,2013-02-13 14:15:00,
2013-02-13 07:19:00,21.2,10.6,30.28,East,88,0.0,0.0,63,0.00,,---,0.00,VWS V14.01,2013-02-13 14:19:00,
2013-02-13 07:20:00,21.2,10.6,30.28,East,88,0.0,0.0,63,0.00,,---,0.00,VWS V14.01,2013-02-13 14:20:00,
2013-02-13 07:24:00,21.3,10.3,30.28,East,88,0.0,0.0,62,0.00,,---,0.00,VWS V14.01,2013-02-13 14:24:00,
2013-02-13 07:25:00,21.3,10.3,30.28,East,88,0.0,0.0,62,0.00,,---,0.00,VWS V14.01,2013-02-13 14:25:00,
2013-02-13 07:29:00,22.1,10.7,30.29,East,88,0.0,0.0,61,0.00,,---,0.00,VWS V14.01,2013-02-13 14:29:00,
2013-02-13 07:30:00,22.0,10.6,30.29,East,88,0.0,0.0,61,0.00,,---,0.00,VWS V14.01,2013-02-13 14:30:00,
2013-02-13 07:34:00,22.4,10.6,30.29,East,87,0.0,0.0,60,0.00,,---,0.00,VWS V14.01,2013-02-13 14:34:00,
2013-02-13 07:35:00,22.4,10.6,30.29,East,87,0.0,0.0,60,0.00,,---,0.00,VWS V14.01,2013-02-13 14:35:00,
2013-02-13 07:39:00,22.9,11.1,30.28,East,88,0.0,0.0,60,0.00,,---,0.00,VWS V14.01,2013-02-13 14:39:00,
2013-02-13 07:40:00,22.9,11.1,30.28,East,88,0.0,0.0,60,0.00,,---,0.00,VWS V14.01,2013-02-13 14:40:00,
2013-02-13 07:44:00,24.2,11.6,30.28,East,87,0.0,0.0,58,0.00,,---,0.00,VWS V14.01,2013-02-13 14:44:00,
2013-02-13 07:45:00,24.1,11.5,30.28,East,88,0.0,2.0,58,0.00,,---,0.00,VWS V14.01,2013-02-13 14:45:00,
2013-02-13 07:49:00,25.4,11.5,30.29,NNW,348,2.0,3.0,55,0.00,,---,0.00,VWS V14.01,2013-02-13 14:49:00,
2013-02-13 07:50:00,25.3,11.4,30.29,NNW,344,3.0,3.0,55,0.00,,---,0.00,VWS V14.01,2013-02-13 14:50:00,
2013-02-13 07:54:00,26.3,11.5,30.29,North,355,0.0,2.0,53,0.00,,---,0.00,VWS V14.01,2013-02-13 14:54:00,
2013-02-13 07:59:00,27.0,11.3,30.29,NNW,347,5.0,5.0,51,0.00,,---,0.00,VWS V14.01,2013-02-13 14:59:00,
2013-02-13 08:04:00,27.6,11.4,30.29,North,9,3.0,3.0,50,0.00,,---,0.00,VWS V14.01,2013-02-13 15:04:00,
2013-02-13 08:05:00,27.5,11.3,30.29,NNW,341,2.0,6.0,50,0.00,,---,0.00,VWS V14.01,2013-02-13 15:05:00,
2013-02-13 08:09:00,27.9,11.2,30.29,NNW,340,0.0,3.0,49,0.00,,---,0.00,VWS V14.01,2013-02-13 15:09:00,
2013-02-13 08:10:00,27.9,11.2,30.29,NNW,338,3.0,6.0,49,0.00,,---,0.00,VWS V14.01,2013-02-13 15:10:00,
2013-02-13 08:14:00,28.2,11.0,30.30,NNW,332,1.0,2.0,48,0.00,,---,0.00,VWS V14.01,2013-02-13 15:14:00,
2013-02-13 08:19:00,28.5,11.3,30.30,NNW,339,3.0,4.0,48,0.00,,---,0.00,VWS V14.01,2013-02-13 15:19:00,
2013-02-13 08:20:00,28.5,11.3,30.30,NNW,344,2.0,5.0,48,0.00,,---,0.00,VWS V14.01,2013-02-13 15:20:00,
2013-02-13 08:24:00,28.9,11.2,30.30,NNW,340,3.0,6.0,47,0.00,,---,0.00,VWS V14.01,2013-02-13 15:24:00,
2013-02-13 08:29:00,29.2,11.5,30.30,NNW,332,3.0,3.0,47,0.00,,---,0.00,VWS V14.01,2013-02-13 15:29:00,
2013-02-13 08:30:00,29.2,11.5,30.30,NNW,344,2.0,6.0,47,0.00,,---,0.00,VWS V14.01,2013-02-13 15:30:00,
2013-02-13 08:34:00,29.3,11.6,30.30,North,355,3.0,4.0,47,0.00,,---,0.00,VWS V14.01,2013-02-13 15:34:00,
2013-02-13 08:35:00,29.3,11.6,30.30,NNW,337,4.0,5.0,47,0.00,,---,0.00,VWS V14.01,2013-02-13 15:35:00,
2013-02-13 08:39:00,29.9,11.6,30.30,North,355,2.0,2.0,46,0.00,,---,0.00,VWS V14.01,2013-02-13 15:39:00,
2013-02-13 08:40:00,29.8,11.6,30.30,North,355,1.0,5.0,46,0.00,,---,0.00,VWS V14.01,2013-02-13 15:40:00,
2013-02-13 08:44:00,30.5,11.7,30.30,North,5,3.0,3.0,45,0.00,,---,0.00,VWS V14.01,2013-02-13 15:44:00,
2013-02-13 08:45:00,30.4,11.6,30.30,North,5,3.0,6.0,45,0.00,,---,0.00,VWS V14.01,2013-02-13 15:45:00,
2013-02-13 08:49:00,30.7,11.9,30.30,NNW,333,4.0,4.0,45,0.00,,---,0.00,VWS V14.01,2013-02-13 15:49:00,
2013-02-13 08:50:00,30.6,11.8,30.30,NW,320,2.0,6.0,45,0.00,,---,0.00,VWS V14.01,2013-02-13 15:50:00,
2013-02-13 08:54:00,31.1,12.2,30.30,NNW,329,2.0,3.0,45,0.00,,---,0.00,VWS V14.01,2013-02-13 15:54:00,
2013-02-13 08:55:00,31.0,12.2,30.30,NNW,336,3.0,6.0,45,0.00,,---,0.00,VWS V14.01,2013-02-13 15:55:00,
2013-02-13 08:59:00,31.8,12.4,30.30,NNW,338,5.0,5.0,44,0.00,,---,0.00,VWS V14.01,2013-02-13 15:59:00,
2013-02-13 09:00:00,31.7,12.3,30.30,NNW,338,3.0,6.0,44,0.00,,---,0.00,VWS V14.01,2013-02-13 16:00:00,
2013-02-13 09:04:00,31.8,11.9,30.30,NW,323,2.0,2.0,43,0.00,,---,0.00,VWS V14.01,2013-02-13 16:04:00,
2013-02-13 09:05:00,31.8,11.9,30.30,NNW,331,2.0,9.0,43,0.00,,---,0.00,VWS V14.01,2013-02-13 16:05:00,
2013-02-13 09:09:00,32.4,12.4,30.30,NW,326,1.0,3.0,43,0.00,,---,0.00,VWS V14.01,2013-02-13 16:09:00,
2013-02-13 09:10:00,32.4,12.4,30.30,NNW,340,3.0,7.0,43,0.00,,---,0.00,VWS V14.01,2013-02-13 16:10:00,
2013-02-13 09:14:00,32.8,12.8,30.30,North,360,5.0,5.0,43,0.00,,---,0.00,VWS V14.01,2013-02-13 16:14:00,
2013-02-13 09:15:00,32.8,12.8,30.31,NNE,20,1.0,6.0,43,0.00,,---,0.00,VWS V14.01,2013-02-13 16:15:00,
2013-02-13 09:19:00,32.9,12.3,30.31,NNW,340,6.0,6.0,42,0.00,,---,0.00,VWS V14.01,2013-02-13 16:19:00,
2013-02-13 09:20:00,32.9,12.3,30.30,ENE,63,5.0,8.0,42,0.00,,---,0.00,VWS V14.01,2013-02-13 16:20:00,
2013-02-13 09:24:00,33.2,12.6,30.30,North,5,7.0,7.0,42,0.00,,---,0.00,VWS V14.01,2013-02-13 16:24:00,
2013-02-13 09:25:00,33.1,12.5,30.30,NW,321,3.0,9.0,42,0.00,,---,0.00,VWS V14.01,2013-02-13 16:25:00,
2013-02-13 09:29:00,33.6,12.4,30.30,North,10,4.0,7.0,41,0.00,,---,0.00,VWS V14.01,2013-02-13 16:29:00,
2013-02-13 09:30:00,33.6,12.4,30.30,NNW,338,7.0,8.0,41,0.00,,---,0.00,VWS V14.01,2013-02-13 16:30:00,
2013-02-13 09:34:00,33.7,12.5,30.31,NNW,342,2.0,3.0,41,0.00,,---,0.00,VWS V14.01,2013-02-13 16:34:00,
2013-02-13 09:35:00,33.6,11.9,30.30,North,10,2.0,10.0,40,0.00,,---,0.00,VWS V14.01,2013-02-13 16:35:00,
2013-02-13 09:39:00,34.3,11.9,30.30,NNE,15,3.0,4.0,39,0.00,,---,0.00,VWS V14.01,2013-02-13 16:39:00,
2013-02-13 09:40:00,34.3,11.9,30.30,NNW,348,4.0,14.0,39,0.00,,---,0.00,VWS V14.01,2013-02-13 16:40:00,
2013-02-13 09:44:00,34.3,11.9,30.30,NNW,340,7.0,8.0,39,0.00,,---,0.00,VWS V14.01,2013-02-13 16:44:00,
2013-02-13 09:45:00,34.3,11.9,30.30,North,355,8.0,10.0,39,0.00,,---,0.00,VWS V14.01,2013-02-13 16:45:00,
2013-02-13 09:49:00,34.7,12.3,30.30,NW,326,4.0,7.0,39,0.00,,---,0.00,VWS V14.01,2013-02-13 16:49:00,
2013-02-13 09:50:00,34.7,12.3,30.30,NNW,340,5.0,8.0,39,0.00,,---,0.00,VWS V14.01,2013-02-13 16:50:00,
2013-02-13 09:54:00,34.4,12.0,30.30,North,355,2.0,2.0,39,0.00,,---,0.00,VWS V14.01,2013-02-13 16:54:00,
2013-02-13 09:55:00,34.4,12.0,30.30,NW,317,1.0,9.0,39,0.00,,---,0.00,VWS V14.01,2013-02-13 16:55:00,
2013-02-13 09:59:00,35.2,12.1,30.30,NNW,337,2.0,3.0,38,0.00,,---,0.00,VWS V14.01,2013-02-13 16:59:00,
2013-02-13 10:00:00,35.2,12.1,30.30,NNW,331,3.0,9.0,38,0.00,,---,0.00,VWS V14.01,2013-02-13 17:00:00,
2013-02-13 10:04:00,35.1,11.5,30.30,North,350,2.0,5.0,37,0.00,,---,0.00,VWS V14.01,2013-02-13 17:04:00,
2013-02-13 10:05:00,35.1,11.5,30.30,North,360,5.0,11.0,37,0.00,,---,0.00,VWS V14.01,2013-02-13 17:05:00,
2013-02-13 10:09:00,35.8,12.1,30.29,NNW,338,4.0,5.0,37,0.00,,---,0.00,VWS V14.01,2013-02-13 17:09:00,
2013-02-13 10:10:00,35.8,12.1,30.30,NNE,14,5.0,9.0,37,0.00,,---,0.00,VWS V14.01,2013-02-13 17:10:00,
2013-02-13 10:14:00,37.0,12.5,30.28,North,360,6.0,6.0,36,0.00,,---,0.00,VWS V14.01,2013-02-13 17:14:00,
2013-02-13 10:15:00,37.0,12.5,30.29,NE,43,4.0,7.0,36,0.00,,---,0.00,VWS V14.01,2013-02-13 17:15:00,
2013-02-13 10:19:00,36.8,11.7,30.28,North,5,3.0,7.0,35,0.00,,---,0.00,VWS V14.01,2013-02-13 17:19:00,
2013-02-13 10:20:00,36.9,11.8,30.28,North,355,7.0,8.0,35,0.00,,---,0.00,VWS V14.01,2013-02-13 17:20:00,
2013-02-13 10:24:00,37.7,11.9,30.28,NNW,336,3.0,3.0,34,0.00,,---,0.00,VWS V14.01,2013-02-13 17:24:00,
2013-02-13 10:25:00,37.7,11.9,30.28,NNW,327,1.0,11.0,34,0.00,,---,0.00,VWS V14.01,2013-02-13 17:25:00,
2013-02-13 10:29:00,37.9,11.4,30.28,West,259,3.0,3.0,33,0.00,,---,0.00,VWS V14.01,2013-02-13 17:29:00,
2013-02-13 10:30:00,37.9,11.4,30.28,WNW,295,2.0,9.0,33,0.00,,---,0.00,VWS V14.01,2013-02-13 17:30:00,
2013-02-13 10:34:00,38.2,11.6,30.28,NNW,337,1.0,1.0,33,0.00,,---,0.00,VWS V14.01,2013-02-13 17:34:00,
2013-02-13 10:35:00,38.2,11.6,30.28,NNW,338,1.0,11.0,33,0.00,,---,0.00,VWS V14.01,2013-02-13 17:35:00,
2013-02-13 10:39:00,38.7,11.4,30.28,North,355,4.0,5.0,32,0.00,,---,0.00,VWS V14.01,2013-02-13 17:39:00,
2013-02-13 10:40:00,38.7,11.4,30.27,NNW,341,5.0,7.0,32,0.00,,---,0.00,VWS V14.01,2013-02-13 17:40:00,
2013-02-13 10:44:00,38.7,11.4,30.28,NW,304,2.0,2.0,32,0.00,,---,0.00,VWS V14.01,2013-02-13 17:44:00,
2013-02-13 10:45:00,38.6,11.3,30.28,NW,317,1.0,8.0,32,0.00,,---,0.00,VWS V14.01,2013-02-13 17:45:00,
2013-02-13 10:49:00,39.0,10.9,30.27,NNW,338,3.0,8.0,31,0.00,,---,0.00,VWS V14.01,2013-02-13 17:49:00,
2013-02-13 10:50:00,39.0,10.9,30.28,NW,304,4.0,10.0,31,0.00,,---,0.00,VWS V14.01,2013-02-13 17:50:00,
2013-02-13 10:54:00,39.0,11.7,30.27,NNW,327,5.0,9.0,32,0.00,,---,0.00,VWS V14.01,2013-02-13 17:54:00,
2013-02-13 10:55:00,39.0,11.7,30.27,NNE,19,7.0,12.0,32,0.00,,---,0.00,VWS V14.01,2013-02-13 17:55:00,
2013-02-13 10:59:00,39.6,11.5,30.27,NW,305,2.0,3.0,31,0.00,,---,0.00,VWS V14.01,2013-02-13 17:59:00,
2013-02-13 11:00:00,39.6,11.5,30.27,WNW,300,3.0,9.0,31,0.00,,---,0.00,VWS V14.01,2013-02-13 18:00:00,
2013-02-13 11:04:00,39.6,11.5,30.27,North,355,5.0,5.0,31,0.00,,---,0.00,VWS V14.01,2013-02-13 18:04:00,
2013-02-13 11:05:00,39.6,11.5,30.27,NNW,333,4.0,13.0,31,0.00,,---,0.00,VWS V14.01,2013-02-13 18:05:00,
2013-02-13 11:09:00,39.8,10.9,30.27,NW,308,1.0,2.0,30,0.00,,---,0.00,VWS V14.01,2013-02-13 18:09:00,
2013-02-13 11:10:00,39.9,11.0,30.26,NW,309,1.0,11.0,30,0.00,,---,0.00,VWS V14.01,2013-02-13 18:10:00,
2013-02-13 11:14:00,39.7,11.6,30.26,NNW,340,5.0,7.0,31,0.00,,---,0.00,VWS V14.01,2013-02-13 18:14:00,
2013-02-13 11:15:00,39.6,10.7,30.26,NNW,347,7.0,9.0,30,0.00,,---,0.00,VWS V14.01,2013-02-13 18:15:00,
2013-02-13 11:19:00,40.7,10.9,30.26,North,5,4.0,5.0,29,0.00,,---,0.00,VWS V14.01,2013-02-13 18:19:00,
2013-02-13 11:20:00,40.7,10.9,30.26,NNW,329,5.0,8.0,29,0.00,,---,0.00,VWS V14.01,2013-02-13 18:20:00,
2013-02-13 11:24:00,41.1,11.3,30.26,North,11,9.0,9.0,29,0.00,,---,0.00,VWS V14.01,2013-02-13 18:24:00,
2013-02-13 11:25:00,41.1,11.3,30.26,NNW,333,6.0,11.0,29,0.00,,---,0.00,VWS V14.01,2013-02-13 18:25:00,
2013-02-13 11:29:00,41.4,10.8,30.25,NW,311,4.0,6.0,28,0.00,,---,0.00,VWS V14.01,2013-02-13 18:29:00,
2013-02-13 11:30:00,41.3,10.7,30.25,NNW,344,6.0,12.0,28,0.00,,---,0.00,VWS V14.01,2013-02-13 18:30:00,
2013-02-13 11:34:00,41.2,11.4,30.25,North,9,6.0,6.0,29,0.00,,---,0.00,VWS V14.01,2013-02-13 18:34:00,
2013-02-13 11:35:00,41.2,11.4,30.25,NNW,341,4.0,11.0,29,0.00,,---,0.00,VWS V14.01,2013-02-13 18:35:00,
2013-02-13 11:39:00,41.3,11.5,30.25,NW,321,6.0,11.0,29,0.00,,---,0.00,VWS V14.01,2013-02-13 18:39:00,
2013-02-13 11:40:00,41.3,11.4,30.25,NW,321,6.0,11.0,29,0.00,,---,0.00,VWS V14.01,2013-02-13 18:40:00,
2013-02-13 11:44:00,41.7,11.0,30.24,NNE,12,7.0,8.0,28,0.00,,---,0.00,VWS V14.01,2013-02-13 18:44:00,
2013-02-13 11:45:00,41.7,11.0,30.24,NNE,15,8.0,12.0,28,0.00,,---,0.00,VWS V14.01,2013-02-13 18:45:00,
2013-02-13 11:49:00,42.0,11.3,30.24,NNW,347,3.0,3.0,28,0.00,,---,0.00,VWS V14.01,2013-02-13 18:49:00,
2013-02-13 11:50:00,41.9,11.2,30.24,NNW,347,3.0,8.0,28,0.00,,---,0.00,VWS V14.01,2013-02-13 18:50:00,
2013-02-13 11:54:00,42.7,11.9,30.23,NNW,338,3.0,4.0,28,0.00,,---,0.00,VWS V14.01,2013-02-13 18:54:00,
2013-02-13 11:55:00,42.7,11.9,30.24,NNW,342,4.0,6.0,28,0.00,,---,0.00,VWS V14.01,2013-02-13 18:55:00,
2013-02-13 11:59:00,42.8,11.1,30.23,NNW,345,10.0,10.0,27,0.00,,---,0.00,VWS V14.01,2013-02-13 18:59:00,
2013-02-13 12:04:00,42.7,11.1,30.23,NW,311,4.0,5.0,27,0.00,,---,0.00,VWS V14.01,2013-02-13 19:04:00,
2013-02-13 12:05:00,42.8,11.1,30.23,WNW,292,5.0,10.0,27,0.00,,---,0.00,VWS V14.01,2013-02-13 19:05:00,
2013-02-13 12:09:00,42.2,10.6,30.23,North,360,7.0,7.0,27,0.00,,---,0.00,VWS V14.01,2013-02-13 19:09:00,
2013-02-13 12:10:00,42.2,10.6,30.23,North,360,7.0,7.0,27,0.00,,---,0.00,VWS V14.01,2013-02-13 19:10:00,
2013-02-13 12:14:00,42.5,10.9,30.23,NW,308,7.0,8.0,27,0.00,,---,0.00,VWS V14.01,2013-02-13 19:14:00,
2013-02-13 12:15:00,42.4,10.8,30.23,North,5,8.0,9.0,27,0.00,,---,0.00,VWS V14.01,2013-02-13 19:15:00,
2013-02-13 12:19:00,43.0,11.3,30.22,NNW,330,6.0,8.0,27,0.00,,---,0.00,VWS V14.01,2013-02-13 19:19:00,
2013-02-13 12:20:00,43.0,11.3,30.22,NNW,330,6.0,8.0,27,0.00,,---,0.00,VWS V14.01,2013-02-13 19:20:00,
2013-02-13 12:24:00,43.8,12.0,30.22,NNW,336,4.0,7.0,27,0.00,,---,0.00,VWS V14.01,2013-02-13 19:24:00,
2013-02-13 12:25:00,43.8,12.0,30.22,NNW,336,4.0,7.0,27,0.00,,---,0.00,VWS V14.01,2013-02-13 19:25:00,
2013-02-13 12:29:00,43.8,11.2,30.22,NW,306,2.0,2.0,26,0.00,,---,0.00,VWS V14.01,2013-02-13 19:29:00,
2013-02-13 12:30:00,43.8,11.2,30.22,NW,307,1.0,6.0,26,0.00,,---,0.00,VWS V14.01,2013-02-13 19:30:00,
2013-02-13 12:34:00,44.2,11.5,30.22,NW,313,5.0,6.0,26,0.00,,---,0.00,VWS V14.01,2013-02-13 19:34:00,
2013-02-13 12:35:00,44.2,11.5,30.22,NW,313,5.0,6.0,26,0.00,,---,0.00,VWS V14.01,2013-02-13 19:35:00,
2013-02-13 12:39:00,44.8,12.0,30.21,North,360,7.0,7.0,26,0.00,,---,0.00,VWS V14.01,2013-02-13 19:39:00,
2013-02-13 12:40:00,44.8,12.0,30.21,North,360,7.0,7.0,26,0.00,,---,0.00,VWS V14.01,2013-02-13 19:40:00,
2013-02-13 12:44:00,45.0,12.2,30.21,NNW,347,4.0,12.0,26,0.00,,---,0.00,VWS V14.01,2013-02-13 19:44:00,
2013-02-13 12:45:00,45.0,12.2,30.21,NNW,347,4.0,12.0,26,0.00,,---,0.00,VWS V14.01,2013-02-13 19:45:00,
2013-02-13 12:49:00,45.4,12.5,30.20,NW,320,5.0,12.0,26,0.00,,---,0.00,VWS V14.01,2013-02-13 19:49:00,
2013-02-13 12:50:00,45.4,12.5,30.20,NW,320,5.0,12.0,26,0.00,,---,0.00,VWS V14.01,2013-02-13 19:50:00,
2013-02-13 12:54:00,45.5,12.6,30.20,NNW,336,2.0,3.0,26,0.00,,---,0.00,VWS V14.01,2013-02-13 19:54:00,
2013-02-13 12:55:00,45.4,12.5,30.20,NNW,333,3.0,6.0,26,0.00,,---,0.00,VWS V14.01,2013-02-13 19:55:00,
2013-02-13 12:59:00,45.4,12.5,30.20,WNW,296,5.0,8.0,26,0.00,,---,0.00,VWS V14.01,2013-02-13 19:59:00,
2013-02-13 13:00:00,45.4,12.5,30.20,WNW,296,5.0,8.0,26,0.00,,---,0.00,VWS V14.01,2013-02-13 20:00:00,
2013-02-13 13:04:00,45.2,12.4,30.19,WNW,293,4.0,8.0,26,0.00,,---,0.00,VWS V14.01,2013-02-13 20:04:00,
2013-02-13 13:05:00,45.2,12.4,30.19,WNW,293,4.0,8.0,26,0.00,,---,0.00,VWS V14.01,2013-02-13 20:05:00,
2013-02-13 13:09:00,45.9,13.0,30.19,West,267,5.0,12.0,26,0.00,,---,0.00,VWS V14.01,2013-02-13 20:09:00,
2013-02-13 13:10:00,45.9,13.0,30.19,West,267,5.0,12.0,26,0.00,,---,0.00,VWS V14.01,2013-02-13 20:10:00,
2013-02-13 13:14:00,45.6,12.7,30.18,NNW,336,3.0,10.0,26,0.00,,---,0.00,VWS V14.01,2013-02-13 20:14:00,
2013-02-13 13:15:00,45.6,12.7,30.18,NNW,336,3.0,10.0,26,0.00,,---,0.00,VWS V14.01,2013-02-13 20:15:00,
2013-02-13 13:19:00,46.8,12.9,30.18,NW,326,7.0,12.0,25,0.00,,---,0.00,VWS V14.01,2013-02-13 20:19:00,
2013-02-13 13:20:00,46.8,12.9,30.18,NW,326,7.0,12.0,25,0.00,,---,0.00,VWS V14.01,2013-02-13 20:20:00,
2013-02-13 13:24:00,46.3,13.3,30.17,West,272,4.0,9.0,26,0.00,,---,0.00,VWS V14.01,2013-02-13 20:24:00,
2013-02-13 13:25:00,46.3,13.3,30.17,West,272,4.0,9.0,26,0.00,,---,0.00,VWS V14.01,2013-02-13 20:25:00,
2013-02-13 13:29:00,46.7,12.8,30.17,West,281,8.0,20.0,25,0.00,,---,0.00,VWS V14.01,2013-02-13 20:29:00,
2013-02-13 13:30:00,46.7,12.8,30.17,NW,308,5.0,20.0,25,0.00,,---,0.00,VWS V14.01,2013-02-13 20:30:00,
2013-02-13 13:34:00,46.8,13.7,30.17,North,355,7.0,11.0,26,0.00,,---,0.00,VWS V14.01,2013-02-13 20:34:00,
2013-02-13 13:35:00,46.8,13.7,30.17,North,355,7.0,11.0,26,0.00,,---,0.00,VWS V14.01,2013-02-13 20:35:00,
2013-02-13 13:39:00,46.8,12.9,30.17,North,355,6.0,14.0,25,0.00,,---,0.00,VWS V14.01,2013-02-13 20:39:00,
2013-02-13 13:40:00,46.8,12.9,30.17,North,5,10.0,14.0,25,0.00,,---,0.00,VWS V14.01,2013-02-13 20:40:00,
2013-02-13 13:44:00,47.5,13.4,30.16,NW,306,5.0,12.0,25,0.00,,---,0.00,VWS V14.01,2013-02-13 20:44:00,
2013-02-13 13:45:00,47.5,13.4,30.16,NW,306,5.0,12.0,25,0.00,,---,0.00,VWS V14.01,2013-02-13 20:45:00,
2013-02-13 13:49:00,47.4,13.4,30.16,West,259,6.0,8.0,25,0.00,,---,0.00,VWS V14.01,2013-02-13 20:49:00,
2013-02-13 13:50:00,47.4,13.4,30.16,NNW,332,5.0,8.0,25,0.00,,---,0.00,VWS V14.01,2013-02-13 20:50:00,
2013-02-13 13:54:00,47.0,13.0,30.16,NW,311,4.0,8.0,25,0.00,,---,0.00,VWS V14.01,2013-02-13 20:54:00,
2013-02-13 13:55:00,47.0,13.0,30.16,NNW,329,6.0,8.0,25,0.00,,---,0.00,VWS V14.01,2013-02-13 20:55:00,
2013-02-13 13:59:00,47.2,13.2,30.15,NW,322,3.0,6.0,25,0.00,,---,0.00,VWS V14.01,2013-02-13 20:59:00,
2013-02-13 14:00:00,47.2,13.2,30.15,NNW,330,5.0,6.0,25,0.00,,---,0.00,VWS V14.01,2013-02-13 21:00:00,
2013-02-13 14:04:00,47.9,13.8,30.15,West,277,4.0,8.0,25,0.00,,---,0.00,VWS V14.01,2013-02-13 21:04:00,
2013-02-13 14:05:00,47.9,12.9,30.15,NW,310,6.0,8.0,24,0.00,,---,0.00,VWS V14.01,2013-02-13 21:05:00,
2013-02-13 14:09:00,47.4,13.4,30.15,North,349,5.0,6.0,25,0.00,,---,0.00,VWS V14.01,2013-02-13 21:09:00,
2013-02-13 14:10:00,47.4,13.4,30.15,North,349,5.0,6.0,25,0.00,,---,0.00,VWS V14.01,2013-02-13 21:10:00,
2013-02-13 14:14:00,47.3,13.3,30.15,WNW,290,4.0,10.0,25,0.00,,---,0.00,VWS V14.01,2013-02-13 21:14:00,
2013-02-13 14:15:00,47.2,13.2,30.15,NNW,331,5.0,10.0,25,0.00,,---,0.00,VWS V14.01,2013-02-13 21:15:00,
2013-02-13 14:19:00,48.1,13.0,30.15,NNW,332,3.0,6.0,24,0.00,,---,0.00,VWS V14.01,2013-02-13 21:19:00,
2013-02-13 14:20:00,48.1,13.0,30.15,NNW,331,4.0,6.0,24,0.00,,---,0.00,VWS V14.01,2013-02-13 21:20:00,
2013-02-13 14:24:00,48.3,13.2,30.15,NW,324,6.0,8.0,24,0.00,,---,0.00,VWS V14.01,2013-02-13 21:24:00,
2013-02-13 14:25:00,48.3,13.2,30.15,NW,324,6.0,8.0,24,0.00,,---,0.00,VWS V14.01,2013-02-13 21:25:00,
2013-02-13 14:29:00,47.9,12.9,30.15,NW,315,7.0,7.0,24,0.00,,---,0.00,VWS V14.01,2013-02-13 21:29:00,
2013-02-13 14:30:00,48.0,12.9,30.15,North,355,7.0,7.0,24,0.00,,---,0.00,VWS V14.01,2013-02-13 21:30:00,
2013-02-13 14:34:00,49.5,13.2,30.14,WSW,256,4.0,7.0,23,0.00,,---,0.00,VWS V14.01,2013-02-13 21:34:00,
2013-02-13 14:35:00,49.5,13.2,30.14,NW,321,4.0,7.0,23,0.00,,---,0.00,VWS V14.01,2013-02-13 21:35:00,
2013-02-13 14:39:00,49.0,12.8,30.14,NW,318,4.0,9.0,23,0.00,,---,0.00,VWS V14.01,2013-02-13 21:39:00,
2013-02-13 14:40:00,49.0,12.8,30.14,WNW,296,4.0,9.0,23,0.00,,---,0.00,VWS V14.01,2013-02-13 21:40:00,
2013-02-13 14:44:00,48.7,13.5,30.14,NW,315,4.0,7.0,24,0.00,,---,0.00,VWS V14.01,2013-02-13 21:44:00,
2013-02-13 14:45:00,48.7,13.5,30.14,West,275,4.0,7.0,24,0.00,,---,0.00,VWS V14.01,2013-02-13 21:45:00,
2013-02-13 14:49:00,48.6,13.5,30.14,NNW,327,6.0,11.0,24,0.00,,---,0.00,VWS V14.01,2013-02-13 21:49:00,
2013-02-13 14:50:00,48.6,13.5,30.14,NNW,333,2.0,11.0,24,0.00,,---,0.00,VWS V14.01,2013-02-13 21:50:00,
2013-02-13 14:54:00,48.6,13.5,30.14,North,355,9.0,9.0,24,0.00,,---,0.00,VWS V14.01,2013-02-13 21:54:00,
2013-02-13 14:55:00,48.6,13.5,30.14,NNE,13,12.0,12.0,24,0.00,,---,0.00,VWS V14.01,2013-02-13 21:55:00,
2013-02-13 14:59:00,49.1,13.9,30.14,NW,318,3.0,12.0,24,0.00,,---,0.00,VWS V14.01,2013-02-13 21:59:00,
2013-02-13 15:00:00,49.1,13.9,30.14,NW,308,2.0,12.0,24,0.00,,---,0.00,VWS V14.01,2013-02-13 22:00:00,
2013-02-13 15:04:00,49.1,13.9,30.14,NW,323,4.0,6.0,24,0.00,,---,0.00,VWS V14.01,2013-02-13 22:04:00,
2013-02-13 15:09:00,48.9,13.7,30.14,WNW,302,4.0,11.0,24,0.00,,---,0.00,VWS V14.01,2013-02-13 22:09:00,
2013-02-13 15:10:00,48.9,13.7,30.14,NNW,333,5.0,11.0,24,0.00,,---,0.00,VWS V14.01,2013-02-13 22:10:00,
2013-02-13 15:14:00,49.1,13.9,30.14,NNW,336,4.0,12.0,24,0.00,,---,0.00,VWS V14.01,2013-02-13 22:14:00,
2013-02-13 15:15:00,49.1,13.9,30.14,NW,325,5.0,12.0,24,0.00,,---,0.00,VWS V14.01,2013-02-13 22:15:00,
2013-02-13 15:19:00,48.7,13.5,30.14,WNW,293,5.0,8.0,24,0.00,,---,0.00,VWS V14.01,2013-02-13 22:19:00,
2013-02-13 15:20:00,48.7,13.5,30.14,WNW,302,3.0,8.0,24,0.00,,---,0.00,VWS V14.01,2013-02-13 22:20:00,
2013-02-13 15:24:00,48.5,13.4,30.14,NW,315,2.0,14.0,24,0.00,,---,0.00,VWS V14.01,2013-02-13 22:24:00,
2013-02-13 15:25:00,48.5,13.4,30.14,NW,315,5.0,14.0,24,0.00,,---,0.00,VWS V14.01,2013-02-13 22:25:00,
2013-02-13 15:29:00,48.7,13.5,30.14,NNW,335,4.0,12.0,24,0.00,,---,0.00,VWS V14.01,2013-02-13 22:29:00,
2013-02-13 15:30:00,48.7,13.5,30.14,NNW,345,8.0,12.0,24,0.00,,---,0.00,VWS V14.01,2013-02-13 22:30:00,
2013-02-13 15:34:00,48.7,14.5,30.14,NNW,346,7.0,13.0,25,0.00,,---,0.00,VWS V14.01,2013-02-13 22:34:00,
2013-02-13 15:35:00,48.7,14.5,30.14,NW,306,3.0,13.0,25,0.00,,---,0.00,VWS V14.01,2013-02-13 22:35:00,
2013-02-13 15:39:00,48.8,13.6,30.14,WNW,292,4.0,7.0,24,0.00,,---,0.00,VWS V14.01,2013-02-13 22:39:00,
2013-02-13 15:40:00,48.8,13.6,30.14,West,273,3.0,7.0,24,0.00,,---,0.00,VWS V14.01,2013-02-13 22:40:00,
2013-02-13 15:43:00,48.5,13.4,30.14,WSW,244,3.0,8.0,24,0.00,,---,0.00,VWS V14.01,2013-02-13 22:43:00,
2013-02-13 15:45:00,48.4,13.3,30.14,NW,306,3.0,8.0,24,0.00,,---,0.00,VWS V14.01,2013-02-13 22:45:00,
2013-02-13 15:48:00,49.0,13.8,30.14,NW,313,4.0,9.0,24,0.00,,---,0.00,VWS V14.01,2013-02-13 22:48:00,
2013-02-13 15:50:00,49.0,13.8,30.14,NW,312,4.0,9.0,24,0.00,,---,0.00,VWS V14.01,2013-02-13 22:50:00,
2013-02-13 15:53:00,48.4,13.3,30.14,NNW,331,5.0,10.0,24,0.00,,---,0.00,VWS V14.01,2013-02-13 22:53:00,
2013-02-13 15:55:00,48.4,13.3,30.14,NNW,331,6.0,10.0,24,0.00,,---,0.00,VWS V14.01,2013-02-13 22:55:00,
2013-02-13 15:58:00,48.0,13.9,30.13,NNW,331,6.0,11.0,25,0.00,,---,0.00,VWS V14.01,2013-02-13 22:58:00,
2013-02-13 16:00:00,48.1,14.0,30.13,NW,305,5.0,11.0,25,0.00,,---,0.00,VWS V14.01,2013-02-13 23:00:00,
2013-02-13 16:03:00,48.8,13.6,30.13,NNE,19,13.0,13.0,24,0.00,,---,0.00,VWS V14.01,2013-02-13 23:03:00,
2013-02-13 16:05:00,48.8,13.6,30.13,NW,313,11.0,13.0,24,0.00,,---,0.00,VWS V14.01,2013-02-13 23:05:00,
2013-02-13 16:08:00,48.1,13.0,30.13,WSW,238,5.0,13.0,24,0.00,,---,0.00,VWS V14.01,2013-02-13 23:08:00,
2013-02-13 16:10:00,48.1,14.0,30.13,NW,323,5.0,13.0,25,0.00,,---,0.00,VWS V14.01,2013-02-13 23:10:00,
2013-02-13 16:13:00,48.1,14.0,30.13,North,351,6.0,12.0,25,0.00,,---,0.00,VWS V14.01,2013-02-13 23:13:00,
2013-02-13 16:15:00,48.1,14.0,30.13,NNE,19,7.0,12.0,25,0.00,,---,0.00,VWS V14.01,2013-02-13 23:15:00,
2013-02-13 16:18:00,48.0,12.9,30.14,NNW,336,3.0,11.0,24,0.00,,---,0.00,VWS V14.01,2013-02-13 23:18:00,
2013-02-13 16:20:00,48.0,13.9,30.14,NNW,336,1.0,11.0,25,0.00,,---,0.00,VWS V14.01,2013-02-13 23:20:00,
2013-02-13 16:23:00,48.0,13.9,30.13,NW,319,4.0,6.0,25,0.00,,---,0.00,VWS V14.01,2013-02-13 23:23:00,
2013-02-13 16:25:00,48.0,13.9,30.13,North,355,5.0,6.0,25,0.00,,---,0.00,VWS V14.01,2013-02-13 23:25:00,
2013-02-13 16:28:00,48.0,13.9,30.13,NNW,343,10.0,14.0,25,0.00,,---,0.00,VWS V14.01,2013-02-13 23:28:00,
2013-02-13 16:30:00,48.0,13.9,30.13,NNW,331,4.0,14.0,25,0.00,,---,0.00,VWS V14.01,2013-02-13 23:30:00,
2013-02-13 16:33:00,47.8,13.7,30.14,NW,318,5.0,9.0,25,0.00,,---,0.00,VWS V14.01,2013-02-13 23:33:00,
2013-02-13 16:35:00,47.8,13.7,30.14,West,267,9.0,9.0,25,0.00,,---,0.00,VWS V14.01,2013-02-13 23:35:00,
2013-02-13 16:38:00,47.5,13.4,30.13,WNW,288,4.0,9.0,25,0.00,,---,0.00,VWS V14.01,2013-02-13 23:38:00,
2013-02-13 16:40:00,47.5,13.4,30.13,NNW,345,6.0,9.0,25,0.00,,---,0.00,VWS V14.01,2013-02-13 23:40:00,
2013-02-13 16:43:00,47.4,13.4,30.14,NW,312,6.0,9.0,25,0.00,,---,0.00,VWS V14.01,2013-02-13 23:43:00,
2013-02-13 16:45:00,47.4,13.4,30.14,WNW,287,4.0,9.0,25,0.00,,---,0.00,VWS V14.01,2013-02-13 23:45:00,
2013-02-13 16:48:00,47.1,14.0,30.13,NNW,338,6.0,10.0,26,0.00,,---,0.00,VWS V14.01,2013-02-13 23:48:00,
2013-02-13 16:50:00,47.1,14.0,30.13,NNW,335,8.0,10.0,26,0.00,,---,0.00,VWS V14.01,2013-02-13 23:50:00,
2013-02-13 16:53:00,46.8,13.7,30.13,NNW,337,4.0,8.0,26,0.00,,---,0.00,VWS V14.01,2013-02-13 23:53:00,
2013-02-13 16:55:00,46.8,13.7,30.13,NW,320,2.0,8.0,26,0.00,,---,0.00,VWS V14.01,2013-02-13 23:55:00,
2013-02-13 16:58:00,46.6,13.6,30.13,NNW,343,5.0,12.0,26,0.00,,---,0.00,VWS V14.01,2013-02-13 23:58:00,
2013-02-13 17:00:00,46.6,13.6,30.13,NNW,339,6.0,12.0,26,0.00,,---,0.00,VWS V14.01,2013-02-14 00:00:00,
2013-02-13 17:03:00,46.6,13.6,30.13,NNW,332,2.0,11.0,26,0.00,,---,0.00,VWS V14.01,2013-02-14 00:03:00,
2013-02-13 17:05:00,46.6,13.6,30.13,North,360,10.0,11.0,26,0.00,,---,0.00,VWS V14.01,2013-02-14 00:05:00,
2013-02-13 17:08:00,46.4,13.4,30.13,NNW,327,4.0,11.0,26,0.00,,---,0.00,VWS V14.01,2013-02-14 00:08:00,
2013-02-13 17:10:00,46.4,13.4,30.13,NNW,332,4.0,11.0,26,0.00,,---,0.00,VWS V14.01,2013-02-14 00:10:00,
2013-02-13 17:13:00,46.1,13.1,30.13,NNW,329,5.0,11.0,26,0.00,,---,0.00,VWS V14.01,2013-02-14 00:13:00,
2013-02-13 17:15:00,46.1,13.1,30.13,North,360,5.0,12.0,26,0.00,,---,0.00,VWS V14.01,2013-02-14 00:15:00,
2013-02-13 17:18:00,45.8,12.9,30.13,North,360,7.0,13.0,26,0.00,,---,0.00,VWS V14.01,2013-02-14 00:18:00,
2013-02-13 17:20:00,45.8,12.9,30.13,NNW,347,8.0,13.0,26,0.00,,---,0.00,VWS V14.01,2013-02-14 00:20:00,
2013-02-13 17:23:00,45.4,13.4,30.13,NW,315,4.0,10.0,27,0.00,,---,0.00,VWS V14.01,2013-02-14 00:23:00,
2013-02-13 17:25:00,45.4,13.4,30.13,NW,319,4.0,10.0,27,0.00,,---,0.00,VWS V14.01,2013-02-14 00:25:00,
2013-02-13 17:28:00,45.1,14.0,30.13,NNW,346,5.0,7.0,28,0.00,,---,0.00,VWS V14.01,2013-02-14 00:28:00,
2013-02-13 17:30:00,45.1,14.0,30.13,NNW,337,5.0,7.0,28,0.00,,---,0.00,VWS V14.01,2013-02-14 00:30:00,
2013-02-13 17:33:00,45.0,13.9,30.14,North,355,4.0,8.0,28,0.00,,---,0.00,VWS V14.01,2013-02-14 00:33:00,
2013-02-13 17:35:00,45.0,13.9,30.14,NNW,333,4.0,8.0,28,0.00,,---,0.00,VWS V14.01,2013-02-14 00:35:00,
2013-02-13 17:38:00,44.8,13.7,30.14,NNW,336,6.0,11.0,28,0.00,,---,0.00,VWS V14.01,2013-02-14 00:38:00,
2013-02-13 17:40:00,44.8,13.7,30.14,NNW,340,8.0,11.0,28,0.00,,---,0.00,VWS V14.01,2013-02-14 00:40:00,
2013-02-13 17:43:00,44.6,13.5,30.14,NNW,333,6.0,12.0,28,0.00,,---,0.00,VWS V14.01,2013-02-14 00:43:00,
2013-02-13 17:45:00,44.6,13.5,30.14,NNE,28,6.0,12.0,28,0.00,,---,0.00,VWS V14.01,2013-02-14 00:45:00,
2013-02-13 17:48:00,44.3,13.3,30.14,NW,319,5.0,9.0,28,0.00,,---,0.00,VWS V14.01,2013-02-14 00:48:00,
2013-02-13 17:50:00,44.3,13.3,30.14,NW,311,3.0,9.0,28,0.00,,---,0.00,VWS V14.01,2013-02-14 00:50:00,
2013-02-13 17:53:00,44.1,13.9,30.15,North,11,8.0,14.0,29,0.00,,---,0.00,VWS V14.01,2013-02-14 00:53:00,
2013-02-13 17:55:00,44.1,13.9,30.15,North,355,12.0,14.0,29,0.00,,---,0.00,VWS V14.01,2013-02-14 00:55:00,
2013-02-13 17:58:00,43.9,13.7,30.15,West,278,2.0,12.0,29,0.00,,---,0.00,VWS V14.01,2013-02-14 00:58:00,
2013-02-13 18:00:00,43.9,13.7,30.15,North,350,7.0,12.0,29,0.00,,---,0.00,VWS V14.01,2013-02-14 01:00:00,
2013-02-13 18:03:00,43.7,14.3,30.15,North,355,3.0,14.0,30,0.00,,---,0.00,VWS V14.01,2013-02-14 01:03:00,
2013-02-13 18:05:00,43.7,14.3,30.15,NW,318,1.0,14.0,30,0.00,,---,0.00,VWS V14.01,2013-02-14 01:05:00,
2013-02-13 18:08:00,43.5,14.1,30.16,NNW,345,5.0,10.0,30,0.00,,---,0.00,VWS V14.01,2013-02-14 01:08:00,
2013-02-13 18:10:00,43.4,14.1,30.16,NW,315,10.0,14.0,30,0.00,,---,0.00,VWS V14.01,2013-02-14 01:10:00,
2013-02-13 18:13:00,43.2,14.6,30.16,NW,326,4.0,10.0,31,0.00,,---,0.00,VWS V14.01,2013-02-14 01:13:00,
2013-02-13 18:15:00,43.2,14.6,30.16,NW,313,4.0,10.0,31,0.00,,---,0.00,VWS V14.01,2013-02-14 01:15:00,
2013-02-13 18:18:00,42.9,14.4,30.16,North,355,10.0,13.0,31,0.00,,---,0.00,VWS V14.01,2013-02-14 01:18:00,
2013-02-13 18:23:00,42.7,14.9,30.16,North,355,6.0,16.0,32,0.00,,---,0.00,VWS V14.01,2013-02-14 01:23:00,
2013-02-13 18:25:00,42.6,14.8,30.16,NW,309,5.0,16.0,32,0.00,,---,0.00,VWS V14.01,2013-02-14 01:25:00,
2013-02-13 18:28:00,42.5,14.7,30.17,NW,304,2.0,15.0,32,0.00,,---,0.00,VWS V14.01,2013-02-14 01:28:00,
2013-02-13 18:30:00,42.5,14.7,30.17,NNW,331,3.0,15.0,32,0.00,,---,0.00,VWS V14.01,2013-02-14 01:30:00,
2013-02-13 18:33:00,42.2,14.5,30.17,NNW,338,4.0,10.0,32,0.00,,---,0.00,VWS V14.01,2013-02-14 01:33:00,
2013-02-13 18:35:00,42.2,14.5,30.17,NNW,346,4.0,10.0,32,0.00,,---,0.00,VWS V14.01,2013-02-14 01:35:00,
2013-02-13 18:38:00,42.0,15.0,30.17,NW,321,6.0,9.0,33,0.00,,---,0.00,VWS V14.01,2013-02-14 01:38:00,
2013-02-13 18:40:00,42.0,15.0,30.17,NNW,332,4.0,9.0,33,0.00,,---,0.00,VWS V14.01,2013-02-14 01:40:00,
2013-02-13 18:43:00,41.8,14.8,30.17,NNW,341,7.0,9.0,33,0.00,,---,0.00,VWS V14.01,2013-02-14 01:43:00,
2013-02-13 18:45:00,41.8,14.8,30.17,NNW,336,7.0,9.0,33,0.00,,---,0.00,VWS V14.01,2013-02-14 01:45:00,
2013-02-13 18:48:00,41.6,15.3,30.17,NNW,346,8.0,13.0,34,0.00,,---,0.00,VWS V14.01,2013-02-14 01:48:00,
2013-02-13 18:50:00,41.6,15.3,30.17,NNW,344,4.0,13.0,34,0.00,,---,0.00,VWS V14.01,2013-02-14 01:50:00,
2013-02-13 18:53:00,41.3,15.1,30.17,North,355,3.0,13.0,34,0.00,,---,0.00,VWS V14.01,2013-02-14 01:53:00,
2013-02-13 18:55:00,41.3,15.1,30.17,North,355,5.0,13.0,34,0.00,,---,0.00,VWS V14.01,2013-02-14 01:55:00,
2013-02-13 18:58:00,41.0,14.8,30.17,North,351,11.0,13.0,34,0.00,,---,0.00,VWS V14.01,2013-02-14 01:58:00,
2013-02-13 19:00:00,41.0,15.5,30.17,WNW,299,5.0,13.0,35,0.00,,---,0.00,VWS V14.01,2013-02-14 02:00:00,
2013-02-13 19:03:00,40.8,15.3,30.17,North,355,6.0,12.0,35,0.00,,---,0.00,VWS V14.01,2013-02-14 02:03:00,
2013-02-13 19:05:00,40.8,15.3,30.17,NW,319,6.0,12.0,35,0.00,,---,0.00,VWS V14.01,2013-02-14 02:05:00,
2013-02-13 19:08:00,40.7,15.2,30.18,NNW,347,3.0,8.0,35,0.00,,---,0.00,VWS V14.01,2013-02-14 02:08:00,
2013-02-13 19:10:00,40.7,15.2,30.18,NNW,329,3.0,8.0,35,0.00,,---,0.00,VWS V14.01,2013-02-14 02:10:00,
2013-02-13 19:13:00,40.6,15.1,30.18,NNW,338,5.0,11.0,35,0.00,,---,0.00,VWS V14.01,2013-02-14 02:13:00,
2013-02-13 19:15:00,40.6,15.1,30.18,NNW,333,3.0,11.0,35,0.00,,---,0.00,VWS V14.01,2013-02-14 02:15:00,
2013-02-13 19:18:00,40.5,15.0,30.17,NW,311,2.0,12.0,35,0.00,,---,0.00,VWS V14.01,2013-02-14 02:18:00,
2013-02-13 19:20:00,40.5,15.0,30.17,NW,317,4.0,12.0,35,0.00,,---,0.00,VWS V14.01,2013-02-14 02:20:00,
2013-02-13 19:23:00,40.5,15.0,30.18,NNW,329,5.0,11.0,35,0.00,,---,0.00,VWS V14.01,2013-02-14 02:23:00,
2013-02-13 19:25:00,40.6,15.1,30.18,North,355,5.0,11.0,35,0.00,,---,0.00,VWS V14.01,2013-02-14 02:25:00,
2013-02-13 19:28:00,40.5,15.7,30.18,WNW,293,1.0,11.0,36,0.00,,---,0.00,VWS V14.01,2013-02-14 02:28:00,
2013-02-13 19:30:00,40.5,15.7,30.18,North,355,6.0,12.0,36,0.00,,---,0.00,VWS V14.01,2013-02-14 02:30:00,
2013-02-13 19:33:00,40.4,14.9,30.18,NNW,343,4.0,7.0,35,0.00,,---,0.00,VWS V14.01,2013-02-14 02:33:00,
2013-02-13 19:35:00,40.3,15.5,30.18,NNW,332,3.0,7.0,36,0.00,,---,0.00,VWS V14.01,2013-02-14 02:35:00,
2013-02-13 19:38:00,40.1,15.3,30.19,NW,318,2.0,6.0,36,0.00,,---,0.00,VWS V14.01,2013-02-14 02:38:00,
2013-02-13 19:40:00,40.1,15.3,30.19,NNW,332,3.0,6.0,36,0.00,,---,0.00,VWS V14.01,2013-02-14 02:40:00,
2013-02-13 19:43:00,40.0,15.2,30.19,North,9,8.0,11.0,36,0.00,,---,0.00,VWS V14.01,2013-02-14 02:43:00,
2013-02-13 19:45:00,40.0,15.2,30.19,North,5,5.0,11.0,36,0.00,,---,0.00,VWS V14.01,2013-02-14 02:45:00,
2013-02-13 19:48:00,40.1,14.7,30.19,NNW,337,4.0,11.0,35,0.00,,---,0.00,VWS V14.01,2013-02-14 02:48:00,
2013-02-13 19:50:00,40.1,14.7,30.19,North,355,6.0,11.0,35,0.00,,---,0.00,VWS V14.01,2013-02-14 02:50:00,
2013-02-13 19:53:00,40.1,15.3,30.19,North,5,5.0,12.0,36,0.00,,---,0.00,VWS V14.01,2013-02-14 02:53:00,
2013-02-13 19:55:00,40.1,15.3,30.19,NNE,19,4.0,12.0,36,0.00,,---,0.00,VWS V14.01,2013-02-14 02:55:00,
2013-02-13 19:58:00,40.0,15.2,30.19,NNW,333,9.0,14.0,36,0.00,,---,0.00,VWS V14.01,2013-02-14 02:58:00,
2013-02-13 20:00:00,40.0,15.2,30.19,North,360,6.0,14.0,36,0.00,,---,0.00,VWS V14.01,2013-02-14 03:00:00,
2013-02-13 20:03:00,39.9,15.8,30.20,NNW,340,9.0,12.0,37,0.00,,---,0.00,VWS V14.01,2013-02-14 03:03:00,
2013-02-13 20:05:00,39.9,15.8,30.20,NNW,342,10.0,12.0,37,0.00,,---,0.00,VWS V14.01,2013-02-14 03:05:00,
2013-02-13 20:08:00,39.7,15.6,30.20,NNW,341,4.0,10.0,37,0.00,,---,0.00,VWS V14.01,2013-02-14 03:08:00,
2013-02-13 20:13:00,39.5,16.0,30.20,NNW,345,5.0,6.0,38,0.00,,---,0.00,VWS V14.01,2013-02-14 03:13:00,
2013-02-13 20:15:00,39.5,16.0,30.20,NW,325,2.0,6.0,38,0.00,,---,0.00,VWS V14.01,2013-02-14 03:15:00,
2013-02-13 20:18:00,39.4,15.9,30.20,North,10,5.0,7.0,38,0.00,,---,0.00,VWS V14.01,2013-02-14 03:18:00,
2013-02-13 20:20:00,39.3,15.8,30.20,NW,318,4.0,7.0,38,0.00,,---,0.00,VWS V14.01,2013-02-14 03:20:00,
2013-02-13 20:23:00,39.4,17.1,30.20,North,5,7.0,9.0,40,0.00,,---,0.00,VWS V14.01,2013-02-14 03:23:00,
2013-02-13 20:25:00,39.4,17.1,30.20,North,360,3.0,9.0,40,0.00,,---,0.00,VWS V14.01,2013-02-14 03:25:00,
2013-02-13 20:28:00,39.3,17.0,30.20,North,355,3.0,6.0,40,0.00,,---,0.00,VWS V14.01,2013-02-14 03:28:00,
2013-02-13 20:30:00,39.3,17.0,30.20,NNW,329,1.0,6.0,40,0.00,,---,0.00,VWS V14.01,2013-02-14 03:30:00,
2013-02-13 20:33:00,39.1,17.4,30.20,NNW,347,1.0,9.0,41,0.00,,---,0.00,VWS V14.01,2013-02-14 03:33:00,
2013-02-13 20:35:00,39.1,17.4,30.20,NNW,338,3.0,9.0,41,0.00,,---,0.00,VWS V14.01,2013-02-14 03:35:00,
2013-02-13 20:38:00,38.9,17.2,30.20,North,360,4.0,7.0,41,0.00,,---,0.00,VWS V14.01,2013-02-14 03:38:00,
2013-02-13 20:40:00,38.9,17.2,30.20,NNW,341,2.0,7.0,41,0.00,,---,0.00,VWS V14.01,2013-02-14 03:40:00,
2013-02-13 20:43:00,38.8,17.1,30.20,NNW,328,1.0,5.0,41,0.00,,---,0.00,VWS V14.01,2013-02-14 03:43:00,
2013-02-13 20:45:00,38.8,17.1,30.20,NNW,328,1.0,5.0,41,0.00,,---,0.00,VWS V14.01,2013-02-14 03:45:00,
2013-02-13 20:50:00,38.2,17.1,30.20,NNW,348,0.0,0.0,42,0.00,,---,0.00,VWS V14.01,2013-02-14 03:50:00,
2013-02-13 20:55:00,37.9,17.4,30.20,NNW,338,0.0,0.0,43,0.00,,---,0.00,VWS V14.01,2013-02-14 03:55:00,
2013-02-13 21:00:00,37.5,17.0,30.20,NNW,338,0.0,0.0,43,0.00,,---,0.00,VWS V14.01,2013-02-14 04:00:00,
2013-02-13 21:05:00,37.4,17.0,30.19,NNW,339,0.0,2.0,43,0.00,,---,0.00,VWS V14.01,2013-02-14 04:05:00,
2013-02-13 21:10:00,37.1,17.2,30.19,NNW,338,0.0,1.0,44,0.00,,---,0.00,VWS V14.01,2013-02-14 04:10:00,
2013-02-13 21:15:00,36.6,16.8,30.19,NNW,338,0.0,0.0,44,0.00,,---,0.00,VWS V14.01,2013-02-14 04:15:00,
2013-02-13 21:20:00,35.8,16.5,30.19,NNW,338,0.0,0.0,45,0.00,,---,0.00,VWS V14.01,2013-02-14 04:20:00,
2013-02-13 21:25:00,35.3,16.6,30.20,NNW,338,0.0,0.0,46,0.00,,---,0.00,VWS V14.01,2013-02-14 04:25:00,
2013-02-13 21:30:00,35.2,17.0,30.19,NNW,342,1.0,1.0,47,0.00,,---,0.00,VWS V14.01,2013-02-14 04:30:00,
2013-02-13 21:35:00,35.8,17.6,30.19,NNW,338,1.0,2.0,47,0.00,,---,0.00,VWS V14.01,2013-02-14 04:35:00,
2013-02-13 21:40:00,36.5,17.7,30.19,NNW,327,1.0,3.0,46,0.00,,---,0.00,VWS V14.01,2013-02-14 04:40:00,
2013-02-13 21:45:00,36.9,17.6,30.20,NNW,332,1.0,6.0,45,0.00,,---,0.00,VWS V14.01,2013-02-14 04:45:00,
2013-02-13 21:50:00,37.2,17.8,30.20,North,350,3.0,3.0,45,0.00,,---,0.00,VWS V14.01,2013-02-14 04:50:00,
2013-02-13 21:55:00,37.4,18.0,30.20,NNW,340,4.0,6.0,45,0.00,,---,0.00,VWS V14.01,2013-02-14 04:55:00,
2013-02-13 22:00:00,37.3,17.4,30.20,NNW,343,1.0,4.0,44,0.00,,---,0.00,VWS V14.01,2013-02-14 05:00:00,
2013-02-13 22:05:00,37.0,17.6,30.20,NNW,342,1.0,2.0,45,0.00,,---,0.00,VWS V14.01,2013-02-14 05:05:00,
2013-02-13 22:10:00,36.8,17.5,30.20,NNW,345,1.0,1.0,45,0.00,,---,0.00,VWS V14.01,2013-02-14 05:10:00,
2013-02-13 22:15:00,36.4,17.1,30.20,NNW,331,1.0,2.0,45,0.00,,---,0.00,VWS V14.01,2013-02-14 05:15:00,
2013-02-13 22:20:00,36.3,17.5,30.20,NNW,341,1.0,2.0,46,0.00,,---,0.00,VWS V14.01,2013-02-14 05:20:00,
2013-02-13 22:25:00,36.1,17.3,30.21,North,355,3.0,3.0,46,0.00,,---,0.00,VWS V14.01,2013-02-14 05:25:00,
2013-02-13 22:30:00,35.9,17.1,30.20,North,360,2.0,3.0,46,0.00,,---,0.00,VWS V14.01,2013-02-14 05:30:00,
2013-02-13 22:35:00,35.6,17.4,30.20,North,355,0.0,1.0,47,0.00,,---,0.00,VWS V14.01,2013-02-14 05:35:00,
2013-02-13 22:40:00,35.3,17.6,30.20,North,355,3.0,3.0,48,0.00,,---,0.00,VWS V14.01,2013-02-14 05:40:00,
2013-02-13 22:45:00,35.1,17.4,30.20,NNW,342,3.0,3.0,48,0.00,,---,0.00,VWS V14.01,2013-02-14 05:45:00,
2013-02-13 22:50:00,35.0,17.3,30.20,NNW,346,3.0,3.0,48,0.00,,---,0.00,VWS V14.01,2013-02-14 05:50:00,
2013-02-13 22:55:00,35.0,17.3,30.20,North,5,3.0,4.0,48,0.00,,---,0.00,VWS V14.01,2013-02-14 05:55:00,
2013-02-13 23:00:00,35.1,17.4,30.20,NNE,24,4.0,6.0,48,0.00,,---,0.00,VWS V14.01,2013-02-14 06:00:00,
2013-02-13 23:05:00,35.2,17.0,30.20,NNW,343,4.0,5.0,47,0.00,,---,0.00,VWS V14.01,2013-02-14 06:05:00,
2013-02-13 23:10:00,35.3,17.1,30.19,North,349,2.0,5.0,47,0.00,,---,0.00,VWS V14.01,2013-02-14 06:10:00,
2013-02-13 23:15:00,35.1,16.9,30.19,NE,39,2.0,6.0,47,0.00,,---,0.00,VWS V14.01,2013-02-14 06:15:00,
2013-02-13 23:20:00,35.1,16.9,30.20,NNW,338,0.0,0.0,47,0.00,,---,0.00,VWS V14.01,2013-02-14 06:20:00,
2013-02-13 23:25:00,34.6,16.9,30.20,NNW,331,0.0,0.0,48,0.00,,---,0.00,VWS V14.01,2013-02-14 06:25:00,
2013-02-13 23:30:00,34.2,17.0,30.20,NNW,331,0.0,0.0,49,0.00,,---,0.00,VWS V14.01,2013-02-14 06:30:00,
2013-02-13 23:35:00,34.2,17.0,30.20,NNW,346,1.0,1.0,49,0.00,,---,0.00,VWS V14.01,2013-02-14 06:35:00,
2013-02-13 23:40:00,33.7,17.0,30.20,East,91,0.0,0.0,50,0.00,,---,0.00,VWS V14.01,2013-02-14 06:40:00,
2013-02-13 23:45:00,33.7,16.6,30.20,East,91,0.0,0.0,49,0.00,,---,0.00,VWS V14.01,2013-02-14 06:45:00,
2013-02-13 23:50:00,33.4,16.8,30.20,NNW,327,2.0,2.0,50,0.00,,---,0.00,VWS V14.01,2013-02-14 06:50:00,
2013-02-13 23:55:00,33.2,16.6,30.20,NNW,339,1.0,2.0,50,0.00,,---,0.00,VWS V14.01,2013-02-14 06:55:00,